Effective Sunday, March 17, 2024, the National Weather Service National Data Buoy Center will discontinue its Dial-A-Buoy Interactive Voice Response system. For more information, see Service Change Notice 24-06 (PDF).

Station LOPL1 - Louisiana Offshore Oil Port, LA Image indicating link to RSS feed of recent meteorological observations for station LOPL1


Conditions at LOPL1 as of
(6:00 am CST)
1200 GMT on 02/23/2024:
     

Click on the graph icon in the table below to see a time series plot of the last five days of that observation.

5-day plot - Wind Direction Wind Direction (WDIR): W ( 280 deg true )
5-day plot - Wind Speed Wind Speed (WSPD): 25.1 kts
5-day plot - Wind Gust Wind Gust (GST): 28.0 kts
5-day plot - Wave Height Wave Height (WVHT): 3.3 ft
5-day plot - Atmospheric Pressure Atmospheric Pressure (PRES):29.83 in
5-day plot - Pressure Tendency Pressure Tendency (PTDY):+0.00 in ( Steady )
5-day plot - Air Temperature Air Temperature (ATMP): 67.6 °F
5-day plot - Dew Point Dew Point (DEWP): 65.8 °F
5-day plot - Wind Speed at 10 Meters Wind Speed at 10 meters (WSPD10M): 21.4 kts
5-day plot - Wind Speed at 20 Meters Wind Speed at 20 meters (WSPD20M): 23.3 kts
5-day plot -  Wind Speed, Wind Gust and Atmospheric Pressure Combined plot of Wind Speed, Gust, and Air Pressure
Previous observations
TIME
(CST)
5-day plot - Wind Direction
WDIR
 
5-day plot - Wind Speed
WSPD
kts
5-day plot - Wind Gust
GST
kts
5-day plot - Wave Height
WVHT
ft
5-day plot - Dominant Wave Period
DPD
sec
5-day plot - Average Wave Period
APD
sec
5-day plot - Mean Wave Direction
MWD
 
5-day plot - Atmospheric Pressure
PRES
in
5-day plot - Pressure Tendency
PTDY
in
5-day plot - Air Temperature
ATMP
°F
5-day plot - Water Temperature
WTMP
°F
5-day plot - Dew Point
DEWP
°F
5-day plot - Salinity
SAL
psu
5-day plot - Visibility
VIS
nmi
5-day plot - Tide (above MLLW)
TIDE
ft
2024-02-23 05:00 am W 19.0 22.9 3.3---29.83+0.00 66.9- 65.7---
2024-02-23 04:00 am W 17.1 20.0 3.3---29.83-0.03 67.1- 65.8---
2024-02-23 03:00 am W 17.1 21.0 3.3---29.83-0.03 67.6- 65.8---
2024-02-23 02:00 amWSW 20.0 22.0 3.6---29.83-0.03 67.5- 65.8---
2024-02-23 01:00 amWSW 22.0 24.1 3.3---29.86-0.03 67.8- 65.7---
2024-02-23 12:00 amWSW 19.0 22.0 3.3---29.86-0.03 68.0- 65.7---
2024-02-22 11:00 pmWSW 19.0 21.0 3.3---29.86-0.03 67.8- 65.5---
2024-02-22 10:00 pm SW 20.0 21.0 3.6---29.89+0.00 67.8- 65.3---
2024-02-22 09:00 pmWSW 19.0 21.0 3.3---29.89+0.00 67.6- 65.3---
2024-02-22 08:00 pmWSW 20.0 21.0 3.6---29.89+0.00 67.6- 64.6---
2024-02-22 07:00 pmWSW 17.1 18.1 3.6---29.89+0.00 67.6- 64.0---
2024-02-22 06:00 pmWSW 19.0 20.0 3.6---29.89-0.03 67.8- 63.7---
2024-02-22 05:00 pmWSW 18.1 19.0 3.3---29.89-0.06 68.0- 63.0---
2024-02-22 04:00 pm SW 19.0 20.0 3.9---29.89-0.09 67.8- 62.8---
2024-02-22 03:00 pm SW 17.1 18.1 3.9---29.92-0.09 67.5- 62.2---
2024-02-22 02:00 pmWSW 14.0 15.9 3.3---29.95-0.09 67.1- 62.2---
2024-02-22 01:00 pmWSW 12.0 13.0 3.6---29.98-0.06 67.5- 61.0---
2024-02-22 12:00 pmWSW 13.0 15.9 3.3---30.01-0.03 67.1- 61.2---
2024-02-22 11:00 amWSW 15.0 17.1 3.3---30.03+0.00 67.3- 60.8---
2024-02-22 10:00 am SW 15.0 18.1 3.3---30.03+0.00 67.8- 60.1---
2024-02-22 09:00 am SW 19.0 22.0 3.0---30.03- 68.4- 59.9---
2024-02-22 08:00 am SW 20.0 22.0 3.0---30.03- 67.8- 58.8---
2024-02-22 07:00 am SW 14.0 15.9 2.6---30.03- 67.5- 60.3---